CW8484 Weather Reports


Display with metric or nautical units.
time (UTC)temp
F
wind
direction
speed
MPH
gust
MPH
rain 1hr
in
rain 24hr
in
rain mn
in
humidity
%
barometer
mb
20260905205404 68 57 0.0 12.0 0.00 0.00 0.00 81 1011.1
20260905204405 68 44 0.0 5.0 0.00 0.00 0.00 81 1011.1
20260905203404 69 338 0.0 2.0 0.00 0.00 0.00 80 1011.0
20260905202404 69 337 0.0 9.0 0.00 0.00 0.00 79 1011.1
20260905201404 69 22 0.0 4.0 0.00 0.00 0.00 82 1011.1
20260905200404 68 2 3.0 5.0 0.00 0.00 0.00 80 1011.0
20260905195404 69 353 2.0 5.0 0.00 0.00 0.00 77 1010.9
20260905194404 70 226 0.0 5.0 0.00 0.00 0.00 80 1010.9
20260905193404 69 302 2.0 4.0 0.00 0.00 0.00 82 1010.9
20260905192404 68 339 1.0 6.0 0.00 0.00 0.00 82 1010.9
20260905191426 68 261 1.0 4.0 0.00 0.00 0.00 81 1010.9
20260905190404 68 317 0.0 9.0 0.00 0.00 0.00 81 1010.9
20260905185403 68 290 0.0 3.0 0.00 0.00 0.00 83 1011.0
20260905184425 68 359 0.0 5.0 0.00 0.00 0.00 82 1011.0
20260905183404 67 2 2.0 5.0 0.00 0.00 0.00 82 1011.1
20260905182425 67 237 0.0 3.0 0.00 0.00 0.00 83 1011.1
20260905181404 68 263 0.0 3.0 0.00 0.00 0.00 81 1011.1
20260905180404 69 273 0.0 10.0 0.00 0.00 0.00 79 1011.0
20260905175405 70 263 4.0 9.0 0.00 0.00 0.00 82 1011.0
20260905174404 69 45 0.0 4.0 0.00 0.00 0.00 82 1011.0
20260905173404 71 244 2.0 10.0 0.00 0.00 0.00 77 1011.1
20260905172425 70 251 2.0 8.0 0.00 0.00 0.00 81 1011.0
20260905171404 68 9 1.0 7.0 0.00 0.00 0.00 82 1011.1
20260905170404 67 360 0.0 7.0 0.00 0.00 0.00 84 1011.2
20260905165404 67 48 0.0 3.0 0.00 0.00 0.00 84 1011.2
20260905164405 67 50 0.0 5.0 0.00 0.00 0.00 79 1011.3
20260905163404 69 261 0.0 8.0 0.00 0.00 0.00 80 1011.2
20260905162405 68 268 0.0 0.0 0.00 0.00 0.00 82 1011.1
20260905161425 69 268 0.0 6.0 0.00 0.00 0.00 79 1011.2
20260905160404 69 354 1.0 5.0 0.00 0.00 0.00 76 1011.2
20260905155404 69 333 4.0 11.0 0.00 0.00 0.00 77 1011.1
20260905154404 67 351 1.0 5.0 0.00 0.00 0.00 81 1011.2
20260905153404 67 328 2.0 6.0 0.00 0.00 0.00 80 1011.2
20260905152404 67 327 1.0 8.0 0.00 0.00 0.00 80 1011.1
20260905151404 67 330 0.0 10.0 0.00 0.00 0.00 81 1011.2
20260905150404 68 9 0.0 5.0 0.00 0.00 0.00 81 1011.2
20260905145404 67 358 1.0 4.0 0.00 0.00 0.00 83 1011.2
20260905144404 66 3 0.0 7.0 0.00 0.00 0.00 83 1011.2
20260905143404 67 355 2.0 10.0 0.00 0.00 0.00 81 1011.2
20260905142404 68 15 0.0 5.0 0.00 0.00 0.00 84 1011.1
20260905141404 66 354 0.0 5.0 0.00 0.00 0.00 86 1011.0
20260905140404 66 280 1.0 3.0 0.00 0.00 0.00 86 1010.9
20260905135404 65 320 0.0 2.0 0.00 0.00 0.00 90 1011.0
20260905134404 64 320 0.0 5.0 0.00 0.00 0.00 94 1010.9
20260905133404 62 336 0.0 6.0 0.00 0.00 0.00 94 1010.9
20260905132425 62 333 0.0 2.0 0.00 0.00 0.00 95 1010.9
20260905131403 61 332 0.0 2.0 0.00 0.00 0.00 95 1010.8
20260905130404 61 333 0.0 5.0 0.00 0.00 0.00 95 1010.8
20260905125425 61 346 1.0 5.0 0.00 0.00 0.00 95 1010.8
20260905124404 61 320 0.0 2.0 0.00 0.00 0.00 95 1010.7
20260905123404 60 9 0.0 2.0 0.00 0.00 0.00 95 1010.5
20260905122404 60 9 0.0 7.0 0.00 0.00 0.00 95 1010.5
20260905121404 60 324 0.0 5.0 0.00 0.08 0.00 95 1010.5
20260905120425 60 354 0.0 5.0 0.00 0.00 0.00 95 1010.3
20260905115404 60 348 0.0 5.0 0.00 0.00 0.00 95 1010.4
20260905114403 60 354 2.0 8.0 0.00 0.00 0.00 95 1010.3
20260905113404 60 9 1.0 4.0 0.00 0.00 0.00 95 1010.2
20260905112403 60 12 0.0 0.0 0.00 0.00 0.00 95 1010.0
20260905111404 60 12 0.0 0.0 0.00 0.00 0.00 95 1010.0
20260905110404 60 12 0.0 6.0 0.00 0.00 0.00 95 1010.0
20260905105404 60 344 0.0 3.0 0.00 0.00 0.00 95 1009.9
20260905104425 60 346 0.0 4.0 0.00 0.00 0.00 95 1009.8
20260905103404 60 255 0.0 4.0 0.00 0.00 0.00 95 1009.8
20260905102425 60 329 0.0 4.0 0.00 0.00 0.00 95 1009.7
20260905101404 60 329 0.0 0.0 0.00 0.00 0.00 95 1009.6
20260905100424 60 329 0.0 4.0 0.00 0.00 0.00 95 1009.7
20260905094403 60 269 0.0 0.0 0.00 0.00 0.00 95 1009.6
20260905093404 60 269 0.0 2.0 0.00 0.00 0.00 95 1009.5
20260905092403 60 268 0.0 1.0 0.00 0.00 0.00 95 1009.6
20260905091404 60 266 0.0 2.0 0.00 0.00 0.00 95 1009.6
20260905090404 60 266 0.0 0.0 0.00 0.00 0.00 95 1009.5
20260905085424 60 266 0.0 0.0 0.00 0.00 0.00 95 1009.3
20260905084404 60 266 0.0 2.0 0.00 0.00 0.00 95 1009.3
20260905083403 60 265 0.0 3.0 0.00 0.00 0.00 95 1009.3
20260905082404 60 265 0.0 4.0 0.00 0.00 0.00 95 1009.2
20260905081403 60 264 0.0 2.0 0.00 0.00 0.00 95 1009.2
20260905080404 60 265 0.0 0.0 0.00 0.00 0.00 94 1009.2
20260905075403 60 265 0.0 0.0 0.00 0.00 0.00 94 1009.2
20260905074404 60 265 0.0 0.0 0.00 0.00 0.00 95 1009.2
20260905073403 60 265 0.0 0.0 0.00 0.00 0.00 95 1009.2
20260905072404 60 265 0.0 2.0 0.00 0.00 0.00 95 1009.2
20260905071403 60 265 0.0 2.0 0.00 0.00 0.00 94 1009.3
20260905070404 60 264 0.0 1.0 0.00 0.00 0.00 94 1009.3
20260905065403 60 265 0.0 0.0 0.00 0.00 0.00 94 1009.3
20260905064404 60 265 0.0 0.0 0.00 0.01 0.00 94 1009.3
20260905063403 60 265 0.0 0.0 0.00 0.01 0.00 94 1009.4
20260905062404 60 265 0.0 0.0 0.00 0.01 0.00 95 1009.3
20260905061403 60 265 0.0 0.0 0.00 0.01 0.00 94 1009.4
20260905060404 60 264 1.0 4.0 0.00 0.01 0.00 94 1009.3
20260905055403 59 265 0.0 0.0 0.00 0.01 0.00 94 1009.3
20260905054404 59 265 0.0 3.0 0.00 0.01 0.00 94 1009.2
20260905053403 59 265 0.0 0.0 0.00 0.01 0.00 94 1009.3
20260905052404 59 265 0.0 3.0 0.00 0.01 0.00 93 1009.4
20260905051403 59 265 0.0 0.0 0.00 0.01 0.00 93 1009.3
20260905050403 59 265 0.0 0.0 0.00 0.01 0.00 93 1009.2
20260905045403 59 264 0.0 1.0 0.00 0.01 0.00 93 1009.3
20260905044404 60 265 0.0 2.0 0.00 0.01 0.00 93 1009.3
20260905043403 60 264 1.0 4.0 0.00 0.01 0.00 93 1009.3
20260905042404 60 264 0.0 3.0 0.00 0.02 0.00 93 1009.3
20260905041403 60 265 0.0 4.0 0.00 0.08 0.00 93 1009.4
20260905040403 60 264 0.0 1.0 0.00 0.08 0.00 93 1009.4
20260905035403 60 264 0.0 4.0 0.00 0.09 0.08 93 1009.3
20260905034403 60 263 2.0 6.0 0.00 0.09 0.08 93 1009.2
20260905033404 61 261 2.0 8.0 0.00 0.09 0.08 93 1009.3
20260905032403 61 251 0.0 4.0 0.00 0.09 0.08 93 1009.3
20260905031425 61 250 0.0 5.0 0.00 0.09 0.08 93 1009.4
20260905030403 60 247 0.0 3.0 0.00 0.09 0.08 92 1009.4
20260905024403 61 248 0.0 0.0 0.00 0.09 0.08 91 1009.4
20260905023403 61 248 0.0 2.0 0.00 0.09 0.08 91 1009.5
20260905022403 61 248 2.0 7.0 0.00 0.09 0.08 91 1009.5
20260905021404 61 246 0.0 4.0 0.00 0.09 0.08 91 1009.7
20260905020404 62 239 0.0 4.0 0.00 0.09 0.08 91 1009.8
20260905015403 62 239 1.0 5.0 0.00 0.09 0.08 91 1009.9
20260905013404 62 236 1.0 5.0 0.00 0.09 0.08 90 1009.8
20260905012403 63 235 0.0 3.0 0.00 0.09 0.08 90 1009.9
20260905011425 63 236 0.0 3.0 0.00 0.09 0.08 90 1009.8
20260905010403 63 236 0.0 1.0 0.00 0.09 0.08 90 1009.8
20260905005403 63 236 0.0 2.0 0.00 0.09 0.08 90 1009.7
20260905004403 63 235 0.0 2.0 0.00 0.09 0.08 90 1009.7
20260905003404 63 236 0.0 2.0 0.00 0.09 0.08 89 1009.6
20260905002403 63 235 0.0 2.0 0.00 0.09 0.08 89 1009.7
20260905001404 63 235 0.0 2.0 0.00 0.09 0.08 89 1009.5
20260905000403 63 236 0.0 3.0 0.00 0.09 0.08 89 1009.4
20260904235404 64 232 1.0 7.0 0.00 0.09 0.08 88 1009.2
20260904234424 64 279 0.0 4.0 0.00 0.09 0.08 88 1009.1
20260904233403 64 279 0.0 0.0 0.00 0.09 0.08 87 1009.2
20260904232403 65 279 0.0 0.0 0.00 0.09 0.08 86 1009.3
20260904231403 66 279 0.0 0.0 0.00 0.09 0.08 86 1009.5
20260904230404 66 279 0.0 0.0 0.00 0.09 0.08 85 1009.5
20260904225403 67 279 0.0 1.0 0.00 0.09 0.08 85 1009.6
20260904224403 67 279 0.0 0.0 0.00 0.09 0.08 85 1009.3
20260904223403 67 278 0.0 2.0 0.00 0.09 0.08 84 1009.2
20260904222403 67 278 0.0 7.0 0.00 0.09 0.08 84 1009.3
20260904221403 68 272 1.0 8.0 0.00 0.09 0.08 84 1009.4
20260904220403 68 281 1.0 7.0 0.00 0.09 0.08 84 1009.4
20260904215403 68 252 0.0 7.0 0.00 0.09 0.08 84 1009.4
20260904214403 68 229 1.0 10.0 0.00 0.09 0.08 82 1009.3
20260904213403 68 273 4.0 9.0 0.00 0.09 0.08 82 1009.2
20260904212403 68 275 1.0 7.0 0.00 0.09 0.08 83 1009.2
20260904211403 69 243 1.0 7.0 0.00 0.09 0.08 82 1009.2
20260904210403 70 268 1.0 8.0 0.00 0.09 0.08 80 1009.1